Tracking 30072 objects as of 14-Jan-2025
HD Live streaming from Space Station
objects crossing your sky now

STARLINK-2236

Track STARLINK-2236 now!
10-day predictions
STARLINK-2236 is classified as:


NORAD ID: 48582
Int'l Code: 2021-041AF
Perigee: 553.4 km
Apogee: 555.2 km
Inclination: 53.1 °
Period: 95.6 minutes
Semi major axis: 6925 km
RCS: Unknown
Launch date: May 15, 2021
Source: United States (US)
Launch site: AIR FORCE EASTERN TEST RANGE (AFETR)
Your satellite tracking list
Your tracking list is empty




NASA's NSSDC Master Catalog

Two Line Element Set (TLE):
1 48582U 21041AF  25014.17965328 -.00000313  00000-0 -21171-5 0  9994
2 48582  53.0523 180.0333 0001294  85.6758 274.4379 15.06402709202903
Source of the keplerian elements: AFSPC